Reading, PA

10:34 AM EST on February 20, 2017 (GMT -0500)
Reading Regional-Spaatz

Weather History for KRDG - September, 2013

Change the Weather History Date:

Friday, September 13, 2013

  Actual Average Record
Temperature  
Mean Temperature 66 °F 67 °F  
Max Temperature 76 °F 77 °F 94 °F (1952)
Min Temperature 56 °F 56 °F 43 °F (1975)
Degree Days  
Heating Degree Days 0 1  
Month to date heating degree days 6 7  
Since 1 July heating degree days 6 12  
Cooling Degree Days 1 3  
Month to date cooling degree days 95 57  
Year to date cooling degree days 1079 860  
Growing Degree Days 17 (Base 50)    
Moisture  
Dew Point 61 °F    
Average Humidity 69    
Maximum Humidity 97    
Minimum Humidity 41    
Precipitation  
Precipitation T in 0.14 in 2.04 in (1944)
Month to date precipitation 0.64 1.53  
Year to date precipitation 29.78 30.49  
Sea Level Pressure  
Sea Level Pressure 29.74 in    
Wind  
Wind Speed 9 mph (NW)    
Max Wind Speed 28 mph    
Max Gust Speed 33 mph    
Visibility 6 miles    
Events Fog , Rain    
T = Trace of Precipitation, MM = Missing Value Source: NWS Daily Summary

Daily Weather History Graph

Daily Weather History Graph

Search for Another Location

Airport or City:

Trip Planner

Search our weather history database for the weather conditions in past years. The results will help you decide how hot, cold, wet, or windy it might be!

Date:

Astronomy

Sep. 13, 2013 Rise Set
Actual Time 6:42 AM EDT 7:15 PM EDT
Civil Twilight 6:15 AM EDT 7:43 PM EDT
Nautical Twilight 5:43 AM EDT 8:15 PM EDT
Astronomical Twilight 5:09 AM EDT 8:48 PM EDT
Moon 3:04 PM EDT (9/13) 12:09 AM EDT (9/13)
Length of Visible Light 13h 27m
Length of Day
12h 32m
First Quarter, 61% of the Moon is Illuminated
Sep 13
First Quarter
Sep 19
Full
Sep 26
Last Quarter
Oct 4
New
Oct 11
First Quarter

Hourly Weather History & Observations

Time (EDT) Temp. Dew Point Humidity Pressure Visibility Wind Dir Wind Speed Gust Speed Precip Events Conditions
12:09 AM 69.8 °F 66.2 °F 88% 29.72 in 4.0 mi Calm Calm - N/A   Overcast
12:27 AM 69.8 °F 68.0 °F 94% 29.72 in 1.8 mi Calm Calm - N/A   Overcast
12:41 AM 69.8 °F 68.0 °F 94% 29.72 in 3.0 mi Calm Calm - N/A   Overcast
12:46 AM 69.8 °F 68.0 °F 94% 29.71 in 1.8 mi Calm Calm - N/A   Overcast
12:54 AM 69.1 °F 68.0 °F 96% 29.72 in 0.5 mi Calm Calm - N/A Fog Fog
1:00 AM 69.8 °F 66.2 °F 88% 29.71 in 0.8 mi Calm Calm - 0.00 in Rain Light Rain
1:07 AM 69.8 °F 68.0 °F 94% 29.71 in 2.0 mi Calm Calm - 0.00 in Rain Light Rain
1:15 AM 69.8 °F 68.0 °F 94% 29.71 in 5.0 mi Calm Calm - 0.00 in   Overcast
1:45 AM 69.8 °F 66.2 °F 88% 29.69 in 2.0 mi Calm Calm - 0.00 in   Overcast
1:54 AM 69.1 °F 66.9 °F 93% 29.70 in 3.0 mi Calm Calm - 0.00 in   Overcast
2:15 AM 69.8 °F 66.2 °F 88% 29.69 in 2.5 mi Calm Calm - N/A   Overcast
2:23 AM 69.8 °F 66.2 °F 88% 29.69 in 4.0 mi Calm Calm - N/A   Overcast
2:54 AM 69.1 °F 66.9 °F 93% 29.70 in 4.0 mi Calm Calm - N/A   Mostly Cloudy
3:13 AM 68.0 °F 66.2 °F 94% 29.69 in 2.0 mi Calm Calm - N/A   Mostly Cloudy
3:23 AM 69.8 °F 66.2 °F 88% 29.69 in 5.0 mi Calm Calm - N/A   Mostly Cloudy
3:39 AM 68.0 °F 66.2 °F 94% 29.68 in 1.2 mi Calm Calm - N/A   Overcast
3:42 AM 68.0 °F 66.2 °F 94% 29.68 in 0.8 mi Calm Calm - N/A   Overcast
3:54 AM 68.0 °F 66.9 °F 96% 29.69 in 2.0 mi Calm Calm - N/A   Mostly Cloudy
4:02 AM 68.0 °F 66.2 °F 94% 29.68 in 3.0 mi Calm Calm - N/A   Scattered Clouds
4:33 AM 68.0 °F 66.2 °F 94% 29.69 in 6.0 mi NW 4.6 mph - N/A   Mostly Cloudy
4:50 AM 68.0 °F 64.4 °F 88% 29.69 in 7.0 mi WNW 10.4 mph - N/A   Mostly Cloudy
4:54 AM 68.0 °F 64.9 °F 90% 29.70 in 9.0 mi WNW 10.4 mph - N/A   Mostly Cloudy
5:03 AM 68.0 °F 64.4 °F 88% 29.70 in 10.0 mi WNW 10.4 mph - N/A   Overcast
5:18 AM 66.2 °F 64.4 °F 94% 29.71 in 10.0 mi WNW 6.9 mph - N/A   Overcast
5:54 AM 66.0 °F 62.1 °F 87% 29.72 in 10.0 mi NNW 3.5 mph - N/A   Mostly Cloudy
6:54 AM 64.0 °F 59.0 °F 84% 29.72 in 10.0 mi NW 3.5 mph - N/A   Clear
7:54 AM 66.0 °F 60.1 °F 81% 29.75 in 10.0 mi NW 8.1 mph - N/A   Clear
8:54 AM 64.9 °F 59.0 °F 81% 29.76 in 10.0 mi NW 6.9 mph - N/A   Mostly Cloudy
9:54 AM 68.0 °F 57.9 °F 70% 29.77 in 10.0 mi NW 10.4 mph - N/A   Scattered Clouds
10:54 AM 70.0 °F 57.0 °F 63% 29.77 in 10.0 mi NW 9.2 mph - N/A   Mostly Cloudy
11:54 AM 73.0 °F 57.0 °F 57% 29.77 in 10.0 mi NW 12.7 mph 18.4 mph N/A   Partly Cloudy
12:54 PM 75.0 °F 55.0 °F 50% 29.75 in 10.0 mi NW 12.7 mph - N/A   Scattered Clouds
1:54 PM 73.0 °F 52.0 °F 48% 29.76 in 10.0 mi NNW 18.4 mph 24.2 mph N/A   Mostly Cloudy
2:54 PM 73.9 °F 51.1 °F 45% 29.75 in 10.0 mi NW 17.3 mph 23.0 mph N/A   Partly Cloudy
3:54 PM 73.0 °F 50.0 °F 44% 29.77 in 10.0 mi NW 16.1 mph 24.2 mph N/A   Scattered Clouds
4:54 PM 73.0 °F 48.9 °F 42% 29.79 in 10.0 mi NW 13.8 mph 23.0 mph N/A   Mostly Cloudy
5:54 PM 71.1 °F 48.0 °F 44% 29.78 in 10.0 mi NNW 16.1 mph - N/A   Clear
6:54 PM 66.9 °F 48.0 °F 51% 29.81 in 10.0 mi North 9.2 mph - N/A   Clear
7:54 PM 66.0 °F 48.9 °F 54% 29.84 in 10.0 mi NNW 10.4 mph - N/A   Mostly Cloudy
8:54 PM 62.1 °F 48.9 °F 62% 29.88 in 10.0 mi NNW 10.4 mph - N/A   Partly Cloudy
9:54 PM 61.0 °F 50.0 °F 67% 29.91 in 10.0 mi NNW 9.2 mph 17.3 mph N/A   Mostly Cloudy
10:54 PM 59.0 °F 48.0 °F 67% 29.93 in 10.0 mi NNE 6.9 mph - N/A   Scattered Clouds
11:54 PM 57.0 °F 46.9 °F 69% 29.94 in 10.0 mi North 4.6 mph - N/A   Clear